Regional Weather Roundup
Issued by NWS Goodland, KS

Home | Current Version | Previous Version | Text Only | Print | Product List | Glossary On
Versions: 1 2 3 4 5 6 7 8 9 10 11 12 13 14 15 16 17 18 19 20 21 22 23 24 25 26 27 28 29 30 31 32 33 34 35 36 37 38 39 40 41 42 43 44 45 46 47 48 49 50
000
ASUS43 KGLD 051059
RWRGLD

GOODLAND FORECAST AREA HOURLY WEATHER ROUNDUP
NATIONAL WEATHER SERVICE GOODLAND KS
500 AM MDT THU MAY 05 2016

...OFFICIAL OBSERVATIONS...

CITY           SKY/WX    TMP DP  RH WIND       PRES   REMARKS
GOODLAND KS    CLEAR     55  42  61 SW13      30.09F
HILL CITY KS   CLEAR     43  40  89 W3        30.10S
IMPERIAL NEB   CLEAR     46  41  82 CALM      30.09S
MCCOOK NEB     CLEAR     42  38  85 CALM      30.10R
AKRON CO       CLOUDY    51  39  63 S10       30.10S
BURLINGTON CO  CLEAR     48  40  73 S9        30.12S
LIMON CO       CLOUDY    35  35 100 NW3       30.16S
$$

...UNOFFICIAL OBSERVATIONS...

CITY           SKY/WX    TMP DP  RH WIND       PRES   REMARKS
COLBY KS       CLEAR     45  45 100 SW6       30.12R
LENORA KS        N/A     50  32  50 MISG        N/A
NORTON KS      CLEAR     41  36  81 CALM      30.09S
SHARON SPRINGS   N/A     50  44  80 S12         N/A
KIT CARSON CO    N/A     46  40  80 MISG        N/A
YUMA CO          N/A     47  41  81 CALM        N/A
$$



USA.gov is the U.S. government's official web portal to all federal, state and local government web resources and services.